[[{"header":{"parameterUnit":"m.s-1","parameterCategory":1,"la1":30.2991,"la2":30.254,"lo1":-89.0895,"lo2":-89.0444,"dy":0.0017,"dx":0.0017,"nx":28,"ny":28,"refTime":"2023-10-23T21:00:00:Z","depth":0,"parameterNumber":2,"parameterNumberName":"U-component_of_WINDS"},"data":[0,0,0,0,0,0,0,0,0,0,0,0,0,0,0,0,0,0,0,0,0,0,0,0,0,0,0,0,0,0,0,0,0,0,0,0,0,0,0,0,0,0,0,0,0,0,0,0,0,0,0,0,0,0,0,0,0,0,-7.9653,-7.9653,0,-7.9722,-7.9723,-7.9724,-7.9593,-7.9589,-7.9584,-7.958,-7.965,-7.9655,-7.9661,0,0,0,0,0,0,0,0,0,0,0,0,0,-7.9406,-7.9411,-7.9653,-7.9654,-7.9654,-7.9722,-7.9723,-7.9724,-7.9594,-7.9589,-7.9583,-7.9578,-7.9648,-7.9655,-7.9662,0,0,0,0,0,0,0,0,0,0,0,0,0,-7.9498,-7.9413,-7.9652,-7.9598,-7.9593,-7.9722,-7.9723,-7.9724,-7.9595,-7.9588,-7.9582,-7.9576,-7.9645,-7.9654,-7.9663,-7.9847,0,0,-7.969,-7.9694,0,0,0,0,0,0,0,0,-7.9493,-7.9507,-7.9605,-7.9602,-7.9597,-7.9642,-7.9661,-7.9766,-7.9597,-7.9594,-7.958,-7.9573,-7.9652,-7.966,-7.9688,-7.9851,-7.9854,-7.969,-7.9696,-7.97,-7.9702,0,0,0,0,0,0,0,-7.9487,-7.9503,-7.968,-7.9606,-7.9602,-7.9569,-7.9575,-7.9681,-7.9659,-7.9594,-7.9585,-7.9595,-7.9649,-7.9679,-7.9688,-7.9855,-7.969,-7.9698,-7.9704,-7.9707,-8.0173,-8.018,0,0,0,0,0,0,-7.9487,-7.9499,-7.9678,-7.9682,-7.9528,-7.9579,-7.9586,-7.9634,-7.9657,-7.9655,-7.96,-7.9589,-7.9667,-7.9678,-7.969,-7.9906,-7.97,-7.9708,-7.9713,-8.0166,-8.0175,-8.0182,0,0,0,0,0,0,-7.9483,-7.9505,-7.9675,-7.9588,-7.9607,-7.959,-7.9646,-7.9639,-7.9669,-7.9662,-7.9658,-7.9635,-7.9663,-7.9678,-7.9809,-7.9907,-7.9712,-7.972,-8.0158,-8.0169,-8.0178,-8.0342,0,0,0,0,0,0,-7.9476,-7.9504,-7.9574,-7.9591,-7.9613,-7.9794,-7.9652,-7.9645,-7.9685,-7.967,-7.9694,-7.9691,-7.9659,-7.9797,-7.9818,-7.9916,-7.9727,-8.0149,-8.0162,-8.0175,-8.0328,-8.0357,-8.0382,0,0,0,0,0,-7.9468,-7.9616,-7.9578,-7.96,-7.97,-7.98,-7.9812,-7.9772,-7.9694,-7.9763,-7.9759,-7.9691,-7.9894,-7.9812,-7.9834,-7.9936,-8.0142,-8.0159,-8.0174,-8.0315,-8.0351,-8.0381,0,0,0,0,0,0,-7.9609,-7.9617,-7.9575,-7.9733,-7.9767,-7.9777,-7.9864,-7.9811,-7.9867,-7.985,-7.9798,-7.9805,-7.9947,-7.9955,-7.9863,-8.0116,-8.0005,-8.0026,-8.0105,-8.0138,-8.0165,-8.0158,-7.9734,0,0,0,0,0,-7.966,-7.9741,-7.9743,-7.9883,-7.9902,-7.9881,-7.9923,-7.989,-7.9922,-7.9935,-7.994,-7.9974,-8.0045,-8.0093,-8.0158,-8.033,-8.0332,-8.0412,-8.0439,-8.0461,-8.0478,-8.0569,-8.0604,-8.0235,-8.0234,-8.0234,0,0,-7.9763,-7.9777,-7.9831,-7.9912,-7.9934,-8.0018,-7.9893,-7.9988,-8.0049,-7.9949,-8.0073,-8.0079,-8.0113,-8.0266,-8.0333,-8.0277,-8.0582,-8.0481,-8.0499,-8.0504,-8.0589,-8.0624,-8.0655,-8.0245,-8.0243,-8.0242,0,0,-7.9993,-8.0014,-8.0132,-8.0157,-8.0193,-8.0178,-8.0207,-8.0227,-8.0227,-8.0351,-8.0278,-8.0351,-8.0475,-8.0502,-8.0532,-8.0778,-8.0716,-8.0801,-8.0941,-8.103,-8.1059,-8.1084,-8.1169,-8.1201,-8.082,-8.082,-8.082,0,-8.0116,-8.0241,-8.0199,-8.0299,-8.0336,-8.0252,-8.037,-8.0397,-8.0453,-8.048,-8.0418,-8.0572,-8.059,-8.0747,-8.0807,-8.0835,-8.0865,-8.0796,-8.1058,-8.1083,-8.1106,-8.1187,-8.1219,-8.083,-8.0829,-8.0828,-8.0827,0,-8.039,-8.0478,-8.0569,-8.0625,-8.0673,-8.0783,-8.0757,-8.0811,-8.0776,-8.0768,-8.0896,-8.0915,-8.0982,-8.1018,-8.0983,-8.1171,-8.1135,-8.1067,-8.0953,-8.1152,-8.1227,-8.1257,-8.0844,-8.084,-8.0838,-8.0835,0,0,-8.0706,-8.0741,-8.0774,-8.0799,-8.0834,-8.0901,-8.1008,-8.1074,-8.1121,-8.1164,-8.125,-8.1359,-8.1297,-8.1331,-8.13,-8.1379,-8.157,-8.13,-8.13,-8.1347,-8.1776,-8.1823,-8.186,-8.1532,-8.1537,-8.1542,-8.1772,0,-8.0932,-8.1114,-8.1081,-8.1259,-8.1339,-8.1262,-8.1354,-8.1386,-8.1383,-8.1451,-8.1447,-8.1524,-8.1437,-8.1458,-8.1533,-8.1531,-8.1654,-8.1514,-8.1609,-8.1613,-8.1598,-8.1899,-8.195,-8.2165,-8.1801,-8.1806,-8.1809,0,-8.1219,-8.1273,-8.1459,-8.1482,-8.1514,-8.1598,-8.1657,-8.1724,-8.1759,-8.1751,-8.1792,-8.1746,-8.1852,-8.1741,-8.1885,-8.1791,-8.1828,-8.1834,-8.1841,-8.1845,-8.172,-8.1907,-8.2233,-8.2264,-8.1855,-8.1852,-8.1848,0,-8.1427,-8.1547,-8.1673,-8.1697,-8.1729,-8.1789,-8.1805,-8.1834,-8.1877,-8.193,-8.1957,-8.2022,-8.2056,-8.2107,-8.208,-8.2002,-8.2229,-8.2116,-8.2223,-8.2224,-8.227,-8.2267,-8.2603,-8.2303,-8.2302,-8.2301,-8.2301,0,-8.168,-8.1796,-8.1767,-8.1844,-8.1972,-8.1935,-8.2062,-8.2069,-8.2096,-8.2173,-8.2112,-8.2186,-8.2148,-8.2219,-8.22,-8.2321,-8.2338,-8.2334,-8.2326,-8.2336,-8.2337,-8.2357,-8.2339,-8.231,-8.2308,-8.2306,-8.2305,0,-8.1932,-8.1918,-8.205,-8.207,-8.2078,-8.2171,-8.2188,-8.226,-8.2255,-8.2353,-8.2374,-8.2364,-8.2445,-8.2425,-8.2513,-8.25,-8.2652,-8.2628,-8.264,-8.2633,-8.274,-8.2729,-8.3097,-8.3143,-8.2817,-8.282,-8.2823,0,-8.2092,-8.2179,-8.221,-8.2258,-8.2279,-8.2356,-8.24,-8.2369,-8.2417,-8.2465,-8.2532,-8.2608,-8.2665,-8.2798,-8.2799,-8.2866,-8.284,-8.2966,-8.285,-8.2858,-8.2838,-8.2832,-8.2839,-8.2987,-8.299,-8.2993,-8.2996,0,-8.2377,-8.2366,-8.2432,-8.2498,-8.2552,-8.2602,-8.2645,-8.2688,-8.2659,-8.2717,-8.2799,-8.2845,-8.2936,-8.3011,-8.3074,-8.309,-8.3038,-8.3034,-8.3061,-8.307,-8.3072,-8.3069,-8.2698,-8.3024,-8.3021,-8.3019,-8.3017,-8.3016,-8.2585,-8.2659,-8.2692,-8.2768,-8.2799,-8.2841,-8.291,-8.2914,-8.2983,-8.3054,-8.3032,-8.3126,-8.316,-8.3239,-8.3264,-8.3336,-8.3289,-8.333,-8.3339,-8.3349,-8.3361,-8.3065,-8.3348,-8.3347,-8.3346,-8.3346,-8.3345,0,-8.2863,-8.2882,-8.2953,-8.3016,-8.3077,-8.3027,-8.3073,-8.3126,-8.321,-8.3247,-8.3307,-8.3402,-8.3476,-8.3484,-8.3554,-8.361,-8.3588,-8.3629,-8.3622,-8.3626,-8.3401,-8.3368,-8.3646,-8.3646,-8.3646,-8.3646,-8.3645,-8.3645,-8.3015,-8.3137,-8.3131,-8.3268,-8.3286,-8.3377,-8.3408,-8.3447,-8.3477,-8.3586,-8.3648,-8.3654,-8.3679,-8.3751,-8.3817,-8.3817,-8.3844,-8.3893,-8.3885,-8.3672,-8.3642,-8.3614,-8.3582,-8.3901,-8.3901,-8.4104,-8.4105,-8.4107]},{"header":{"parameterUnit":"m.s-1","parameterCategory":1,"la1":30.2991,"la2":30.254,"lo1":-89.0895,"lo2":-89.0444,"dy":0.0017,"dx":0.0017,"nx":28,"ny":28,"refTime":"2023-10-23T21:00:00:Z","depth":0,"parameterNumber":3,"parameterNumberName":"V-component_of_WINDS"},"data":[0,0,0,0,0,0,0,0,0,0,0,0,0,0,0,0,0,0,0,0,0,0,0,0,0,0,0,0,0,0,0,0,0,0,0,0,0,0,0,0,0,0,0,0,0,0,0,0,0,0,0,0,0,0,0,0,0,0,1.9719,1.9721,0,1.9854,1.9855,1.9857,1.9893,1.9892,1.9891,1.989,2.0024,2.0028,2.0032,0,0,0,0,0,0,0,0,0,0,0,0,0,1.9493,1.9497,1.9719,1.9721,1.9723,1.9853,1.9855,1.9857,1.9893,1.9892,1.9891,1.989,2.0022,2.0027,2.0032,0,0,0,0,0,0,0,0,0,0,0,0,0,1.9606,1.9499,1.9719,1.9756,1.9761,1.9853,1.9855,1.9857,1.9893,1.9892,1.9891,1.989,2.0021,2.0027,2.0033,2.0096,0,0,2.0053,2.0056,0,0,0,0,0,0,0,0,1.9599,1.9614,1.9749,1.9754,1.9759,1.9855,1.9824,1.9937,1.9893,1.9843,1.989,1.9889,1.9968,1.9979,2.0007,2.0102,2.0108,2.0053,2.0057,2.006,2.0062,0,0,0,0,0,0,0,1.9591,1.9608,1.9772,1.9751,1.9757,1.9766,1.9781,1.9846,1.991,1.9847,1.985,1.9866,1.9971,2.0,2.001,2.011,2.0053,2.0059,2.0063,2.0065,2.0269,2.027,0,0,0,0,0,0,1.9578,1.9602,1.9768,1.9776,1.9675,1.9771,1.9788,1.9826,1.991,1.9922,1.9867,1.9867,1.999,2.0002,2.0015,2.0097,2.006,2.0066,2.007,2.0267,2.0269,2.0271,0,0,0,0,0,0,1.9573,1.9592,1.9763,1.969,1.9712,1.9776,1.9819,1.9829,1.9858,1.9925,1.9936,1.9885,1.9989,2.0006,2.0077,2.0102,2.0069,2.0075,2.0265,2.0268,2.027,2.026,0,0,0,0,0,0,1.9566,1.959,1.9615,1.969,1.9716,1.9823,1.982,1.9832,1.987,1.9872,1.9945,1.9956,1.999,2.0067,2.0083,2.011,2.008,2.0263,2.0266,2.0269,2.0259,2.0262,2.0265,0,0,0,0,0,1.9558,1.9605,1.9616,1.9635,1.9748,1.9824,1.9839,1.9878,1.9872,1.9897,1.994,1.9953,2.0097,2.0074,2.0093,2.0122,2.0262,2.0266,2.0269,2.0257,2.0261,2.0265,0,0,0,0,0,0,1.9527,1.9615,1.9628,1.9701,1.9755,1.983,1.9863,1.9881,1.9936,1.9936,1.9981,1.9997,2.0066,2.0101,2.0074,2.019,2.018,2.0187,2.0164,2.0169,2.0172,2.0162,2.0085,0,0,0,0,0,1.953,1.9585,1.9658,1.9715,1.9742,1.9798,1.9832,1.9859,1.9916,1.9938,1.9986,2.0041,2.0099,2.0135,2.0192,2.0264,2.0282,2.0293,2.0297,2.0299,2.0305,2.0349,2.0356,2.0282,2.0282,2.0282,0,0,1.9534,1.9589,1.962,1.9711,1.9756,1.9812,1.9817,1.9875,1.9918,1.9947,2.0018,2.0056,2.0119,2.0193,2.0227,2.0224,2.033,2.0303,2.0305,2.031,2.0354,2.036,2.0367,2.0285,2.0284,2.0284,0,0,1.9571,1.9617,1.9672,1.9718,1.9788,1.9825,1.9838,1.9912,1.9939,2.0012,2.0036,2.0087,2.0184,2.023,2.0266,2.0325,2.0341,2.0342,2.0359,2.0401,2.0407,2.0413,2.0437,2.0444,2.0348,2.0348,2.0348,0,1.9567,1.9654,1.9697,1.9757,1.9797,1.9829,1.9885,1.9927,2.001,2.0037,2.0033,2.0159,2.0204,2.029,2.0305,2.0332,2.035,2.0334,2.0403,2.0409,2.0415,2.0438,2.0446,2.0348,2.0348,2.0348,2.0348,0,1.9648,1.9708,1.9744,1.9827,1.9871,1.9928,1.998,2.002,2.0043,2.0081,2.0157,2.0212,2.0282,2.0304,2.0326,2.0395,2.0391,2.0394,2.0385,2.0421,2.0444,2.0453,2.0348,2.0348,2.0348,2.0348,0,0,1.9667,1.9777,1.979,1.983,1.991,1.9958,2.0017,2.0088,2.0122,2.0179,2.0231,2.0315,2.0321,2.0361,2.0389,2.0426,2.0474,2.0425,2.0428,2.0434,2.0556,2.0554,2.0564,2.0484,2.0486,2.0487,2.0552,0,1.9717,1.9826,1.9869,1.9958,2.0015,2.0048,2.0101,2.0156,2.0194,2.0248,2.029,2.035,2.035,2.0376,2.0414,2.046,2.0499,2.0455,2.0534,2.0536,2.0519,2.0575,2.0573,2.0631,2.056,2.0562,2.0563,0,1.9788,1.985,1.9945,2.0023,2.0049,2.0095,2.0166,2.0217,2.0281,2.0306,2.0354,2.0381,2.0446,2.0433,2.0523,2.0493,2.0528,2.0555,2.0559,2.0568,2.0552,2.0589,2.065,2.0659,2.0577,2.0576,2.0575,0,1.9796,1.9902,1.9975,2.0008,2.0099,2.0132,2.0171,2.0235,2.0276,2.0337,2.0365,2.0432,2.0469,2.052,2.0565,2.0551,2.0653,2.0642,2.0677,2.0676,2.0697,2.0695,2.0767,2.0716,2.0716,2.0716,2.0716,0,1.9847,1.9905,1.9981,2.0025,2.0092,2.014,2.0205,2.0246,2.0303,2.0357,2.0388,2.0438,2.0493,2.0549,2.0584,2.0656,2.0671,2.0695,2.0704,2.0693,2.069,2.0717,2.0715,2.0718,2.0718,2.0717,2.0717,0,1.9868,1.992,2.0002,2.0083,2.0106,2.0151,2.0221,2.0266,2.0307,2.0375,2.0393,2.0457,2.0526,2.0576,2.0663,2.0687,2.0765,2.0772,2.0744,2.0749,2.0781,2.0778,2.0874,2.089,2.0826,2.0827,2.0827,0,1.9898,1.9944,2.0032,2.0071,2.0112,2.0173,2.0217,2.0268,2.0312,2.0391,2.0427,2.0499,2.0559,2.0667,2.0721,2.079,2.0801,2.0829,2.0811,2.08,2.0804,2.0802,2.0808,2.0832,2.0833,2.0833,2.0833,0,1.9946,1.9971,2.0033,2.0106,2.0158,2.0217,2.0276,2.0306,2.0368,2.0416,2.0488,2.0535,2.0627,2.0699,2.0773,2.0814,2.0835,2.0839,2.0851,2.0841,2.0824,2.0837,2.0754,2.0836,2.0836,2.0836,2.0836,2.0836,1.9974,2.0018,2.0088,2.0158,2.0209,2.0264,2.0312,2.0361,2.0423,2.0503,2.0529,2.0605,2.0671,2.0774,2.0816,2.0876,2.0874,2.0891,2.0896,2.0899,2.0901,2.0814,2.0889,2.0889,2.0889,2.0889,2.0889,0,2.0026,2.0074,2.0138,2.0222,2.0277,2.0294,2.0362,2.0407,2.0474,2.0535,2.0595,2.068,2.075,2.0811,2.0885,2.0921,2.0933,2.0939,2.0938,2.0948,2.0896,2.088,2.0929,2.0929,2.0929,2.0929,2.0929,2.0929,2.006,2.0137,2.0171,2.0274,2.0321,2.0398,2.0435,2.0488,2.0537,2.0632,2.0692,2.0732,2.0794,2.0873,2.0939,2.0955,2.0981,2.0986,2.1004,2.0955,2.0951,2.0946,2.0931,2.099,2.099,2.1051,2.1052,2.1052]}]]